Hourly Data Report for November 03, 2017

All times are specified in Local Standard Time (LST). Add 1 hour to adjust for Daylight Saving Time where and when it is observed.

MAYO A
YUKON TERRITORY

63°36'59.000" N
135°52'06.000" W
503.80 m
2100701
71965
YMA

Download Data

Hourly Data (November 2017)
Hourly Data Report for November 3, 2017
Temp Definition
°C
Dew Point Temp Definition
°C
Rel Hum Definition
%
Wind Dir Definition
10's deg

Wind Spd Definition
km/h
Visibility Definition
km
Stn Press Definition
kPa
Hmdx Definition


Wind Chill Definition


Weather Definition


TIME
00:00 Legend Double Dagger -8.4 -9.6 91 33 4 11.3 96.71   -11 LegendNANA
01:00 Legend Double Dagger -8.4 -9.6 92 36 3 16.1 96.66   -10 Cloudy
02:00 Legend Double Dagger -8.4 -9.6 91 36 1 11.3 96.61   -9 LegendNANA
03:00 Legend Double Dagger -8.4 -9.6 91 36 2 12.9 96.57   -9 LegendNANA
04:00 Legend Double Dagger -8.3 -9.5 91 0 1 12.9 96.49   -9 Cloudy
05:00 Legend Double Dagger -8.5 -9.7 91 34 4 12.9 96.46   -11 LegendNANA
06:00 Legend Double Dagger -8.5 -9.7 91 27 4 24.1 96.39   -11 LegendNANA
07:00 Legend Double Dagger -8.9 -10.0 91 36 2 24.1 96.36   -10 Cloudy
08:00 Legend Double Dagger -8.7 -9.9 91 0 1 24.1 96.37   -9 Snow
09:00 Legend Double Dagger -9.0 -10.2 91 28 4 32.2 96.35   -11 Snow
10:00 Legend Double Dagger -8.8 -10.0 91 31 3 32.2 96.34   -10 Cloudy
11:00 Legend Double Dagger -8.6 -9.8 91 36 3 32.2 96.32   -10 Snow
12:00 Legend Double Dagger -8.4 -9.6 91 36 2 32.2 96.32   -9 LegendNANA
13:00 Legend Double Dagger -7.9 -9.0 92 26 5 32.2 96.35   -11 Mostly Cloudy
14:00 Legend Double Dagger -7.5 -8.6 92 26 3 32.2 96.35   -9 LegendNANA
15:00 Legend Double Dagger -7.2 -8.4 92 29 4 32.2 96.37   -9 LegendNANA
16:00 Legend Double Dagger -7.3 -8.3 93 25 3 32.2 96.41   -9 Mostly Cloudy
17:00 Legend Double Dagger -9.9 -11.0 92 5 3 32.2 96.45   -12 LegendNANA
18:00 Legend Double Dagger -11.1 -12.5 89 8 5 32.2 96.49   -14 LegendNANA
19:00 Legend Double Dagger -12.1 -13.7 88 36 2 32.2 96.50   -13 Mainly Clear
20:00 Legend Double Dagger -12.7 -14.2 88 36 3 32.2 96.55   -15 LegendNANA
21:00 Legend Double Dagger -13.7 -15.3 88 30 3 32.2 96.59   -16 LegendNANA
22:00 Legend Double Dagger -14.4 -16.3 86 21 3 32.2 96.62   -17 Mainly Clear
23:00 Legend Double Dagger -14.4 -16.2 86 36 3 32.2 96.64   -17 LegendNANA

Notes on Data Quality.

Legend

  • E = Estimated
  • M = Missing
  • NA = Not Available
  • ‡ = Partner data that is not subject to review by the National Climate Archives
Date modified: